This is the latest recevied weather packets stored in our database for station/object KY0TEQ-13. If no packets are shown the sender has not sent any weather packets the latest 10 day(s).
| Time | Temp. | Humidity | Pressure | Rain* | Wind** | Luminosity | Snow |
|---|---|---|---|---|---|---|---|
| 1778057345 | 5° C | 71% | 1297.9 hPa | 0 mm | - | 0 W/m² | - |
| 1778057042 | 5° C | 70% | 1297.9 hPa | 0 mm | - | 0 W/m² | - |
| 1778056738 | 5° C | 70% | 1297.9 hPa | 0 mm | - | 0 W/m² | - |
| 1778056436 | 5° C | 70% | 1297.8 hPa | 0 mm | - | 0 W/m² | - |
| 1778056133 | 5° C | 71% | 1297.9 hPa | 0 mm | - | 0 W/m² | - |
| 1778055830 | 5.56° C | 70% | 1297.9 hPa | 0 mm | - | 0 W/m² | - |
| 1778055526 | 5.56° C | 70% | 1297.7 hPa | 0 mm | - | 0 W/m² | - |
| 1778055224 | 5.56° C | 70% | 1298.1 hPa | 0 mm | - | 0 W/m² | - |
| 1778054921 | 5.56° C | 72% | 1297.9 hPa | 0 mm | - | 0 W/m² | - |
| 1778054618 | 5° C | 73% | 1298.2 hPa | 0 mm | - | 0 W/m² | - |
| 1778054316 | 5° C | 73% | 1298.1 hPa | 0 mm | - | 0 W/m² | - |
| 1778054013 | 5.56° C | 73% | 1298.2 hPa | 0 mm | - | 0 W/m² | - |
| 1778053710 | 5.56° C | 72% | 1298.2 hPa | 0 mm | - | 0 W/m² | - |
| 1778053407 | 5.56° C | 71% | 1298.1 hPa | 0 mm | - | 0 W/m² | - |
| 1778053105 | 5.56° C | 70% | 1298.3 hPa | 0 mm | - | 0 W/m² | - |
| 1778052802 | 5.56° C | 70% | 1298.2 hPa | 0 mm | - | 0 W/m² | - |
| 1778052498 | 5.56° C | 72% | 1298.2 hPa | 0 mm | - | 0 W/m² | - |
| 1778052196 | 5.56° C | 70% | 1298.2 hPa | 0 mm | - | 0 W/m² | - |
| 1778051888 | 5.56° C | 71% | 1298.3 hPa | 0 mm | - | 0 W/m² | - |
| 1778051586 | 6.11° C | 71% | 1298.2 hPa | 0 mm | - | 0 W/m² | - |
| 1778051283 | 6.11° C | 70% | 1298.2 hPa | 0 mm | - | 0 W/m² | - |
| 1778050980 | 6.11° C | 69% | 1298.3 hPa | 0 mm | - | 0 W/m² | - |
| 1778050677 | 5.56° C | 70% | 1298.1 hPa | 0 mm | - | 0 W/m² | - |
| 1778050374 | 5.56° C | 74% | 1298.2 hPa | 0 mm | - | 0 W/m² | - |
| 1778050071 | 5.56° C | 77% | 1298.2 hPa | 0 mm | - | 0 W/m² | - |
* Rain latest hour (hover to see other rain measurements)
** Current wind speed in m/s (hover to see current wind gust speed)